CZ-2D DEB, 43402

Orbit data source: Space-Track

CZ-2D DEB, 43402 is space debris in SSO originally from a launch on Sat, 29 Sep 2012 UTC launched from the Jiuquan Satellite Launch Center, China (JSC). Debris objects in space refer to the collection of defunct objects orbiting the Earth. Examples of debris include non-operational satellites, rocket bodies, and fragments generated from explosions, collisions, or faulty payload assembly.

Loading next visibility...
Identifier
43402, 2012-052B
Orbit
SSO
Country
Flag of CNCN / PRC
Related business
Manufacturer
SAST
Mission
Spacecraft
Bus & Motor
Unknown
Mass
Unknown
Launch date (UTC)
2012-09-29 (13 years ago)
Launch vehicle
Unknown
Launch site
Jiuquan Satellite Launch Center, China (JSC)
Object type
Payload
Rocket body
Debris
Shape & HBR
Unknown shape, 0.1 m
Radar Cross Section
Small (<0.1 m²)

Expand to show TLE details & history
Last TLE update: 11 hours ago

TLE from 11 hours ago
0 CZ-2D DEB
1 43402U 12052B   26036.25168686  .00003963  00000-0  10100-2 0  9997
2 43402  98.0780 140.4837 0206581  86.0849 276.3928 14.39053420635799
Epoch: 2026-02-05T06:02Z
TLE epoch observation values (Epoch: 2026-02-05T06:02:25.744Z)
Latitude
-0.00007°
Longitude
-85.53015°
Altitude
751.183 km
Speed
7.486 km/s
True Right ascension
09h 21m 56s
True Declination
0° 00' 00"
Sunlit
Object was in full shadow at epoch
Visualization orbit readout
Latitude
Unknown
Longitude
Unknown
Altitude
Unknown
Speed
Unknown
Apparent Right ascension
Unknown
Apparent Declination
Unknown
Sunlit
N/A
Visualization observer readout
Local Sidereal Time
18:43:13
Azimuth
Unknown
Elevation
Unknown
Doppler factor
Unknown
Orbital elements
Apogee altitude
906.164 km
Perigee altitude
611.295 km
Semi-major axis
7,136.867 km
Eccentricity
0.02066
Inclination
98.078°
RAAN
140.4837°
Arg. of periapsis
86.0849°
True anomaly
274.03416°
Mean anomaly
276.3928°
Eccentric anomaly
275.21408°
Mean motion
3.59983 °/min
Orbital period
100 mins
BSTAR
0.00101
Loading maneuver chart data...
Computing Atmospheric mass density...
Loading historical data...
Loading historical data...
Loading historical data...
Loading historical data...
Loading historical data...
Loading historical data...
Loading historical data...
Other satellites on launch #52 in the year 2012 (2012-09-29 UTC)

Documentation

Showing up to 5 results
|